sat.trackr.live / text

‹ back to catalog

STARLINK-36481

NORAD 67307 · 2026-002C

PAYLOAD ACTIVE UNKNOWN

§ Identity

Operator
Country
US
Launch date
2026-01-04
Launch site
AFETR
Launch vehicle
Mass (kg)
RCS (m²)

Purposes: comms

External: N2YO · Heavens-Above · Gunter

§ Orbital elements

Epoch: 2026-05-24T16:58:12.508608Z

Period
94.27 min
Inclination
43.0039°
Eccentricity
0.0001696
Mean motion
15.27591422 rev/d
Perigee alt
481.9 km
Apogee alt
484.2 km
Semi-major
6,861.2 km
B*
6.0372e-4
RAAN
256.0624°
Arg perigee
262.9056°
Mean anomaly
97.1603°
Rev number
2,270

§ Raw data

STARLINK-364811 67307U 26002C   26144.70708922  .00016394  00000+0  60372-3 0  99982 67307  43.0039 256.0624 0001696 262.9056  97.1603 15.27591422 22706

JSON: /api/v1/satellites/67307 · /tle

For live sub-satellite position, see the globe view (requires WebGL).

§ Visibility from observer

Set your observer location to see the next 7 days of passes ≥ 10°. The values pass through the URL so the page stays shareable.

No JS? Fill the form by hand. The geolocation button needs JavaScript.